FW8079 Weather Reports


time (UTC)temp
C
wind
direction
speed
KPH
gust
KPH
rain 1hr
cm
rain 24hr
cm
rain mn
cm
humidity
%
barometer
mb
20260507075717 13 112 3.2 6.4 0.00 0.36 0.36 96 1007.5
20260507075214 13 352 0.0 3.2 0.00 0.36 0.36 97 1007.7
20260507074710 13 66 1.6 6.4 0.00 0.36 0.36 97 1007.2
20260507074209 13 93 1.6 9.7 0.00 0.36 0.36 97 1007.0
20260507073704 13 80 0.0 6.4 0.00 0.36 0.36 98 1007.3
20260507073201 13 78 1.6 6.4 0.00 0.36 0.36 98 1007.2
20260507072659 13 335 3.2 4.8 0.00 0.36 0.36 98 1007.4
20260507072156 13 97 3.2 4.8 0.00 0.36 0.36 98 1007.3
20260507071654 13 304 0.0 4.8 0.00 0.36 0.36 98 1006.8
20260507071149 13 57 0.0 4.8 0.00 0.36 0.36 98 1006.8
20260507070647 13 341 0.0 6.4 0.00 0.36 0.36 98 1007.0
20260507070144 13 321 3.2 6.4 0.00 0.36 0.36 98 1007.0
20260507065640 13 336 4.8 9.7 0.00 0.36 0.36 98 1007.3
20260507065137 13 258 3.2 6.4 0.00 0.36 0.36 98 1007.2
20260507064634 13 93 3.2 6.4 0.00 0.36 0.36 98 1006.8
20260507064133 13 276 1.6 11.3 0.00 0.36 0.36 98 1007.0
20260507063630 14 278 8.0 9.7 0.00 0.36 0.36 98 1006.6
20260507063127 14 0 6.4 6.4 0.00 0.36 0.36 98 1006.3
20260507062624 14 298 4.8 8.0 0.00 0.36 0.36 98 1006.4
20260507062121 14 314 3.2 3.2 0.00 0.36 0.36 98 1006.1
20260507061619 14 282 4.8 4.8 0.00 0.36 0.36 98 1006.4
20260507061117 14 60 3.2 8.0 0.05 0.36 0.36 98 1006.5
20260507060615 15 329 4.8 8.0 0.05 0.36 0.36 98 1006.7
20260507060111 15 126 1.6 3.2 0.00 0.33 0.33 98 1006.8
20260507055606 15 312 3.2 4.8 0.05 0.33 0.33 98 1006.6
20260507055102 15 189 0.0 3.2 0.13 0.33 0.33 99 1007.1
20260507054558 15 341 3.2 4.8 0.30 0.33 0.33 98 1006.8
20260507054056 15 294 3.2 4.8 0.48 0.33 0.33 98 1006.6
20260507053553 15 309 8.0 8.0 0.43 0.28 0.28 98 1006.7
20260507053052 15 353 3.2 6.4 0.43 0.23 0.23 98 1007.0
20260507052549 15 302 6.4 6.4 0.61 0.20 0.20 97 1006.7
20260507052046 16 77 4.8 4.8 0.48 0.15 0.15 96 1006.7
20260507051544 16 4 1.6 3.2 0.30 0.10 0.10 96 1007.6
20260507051040 16 315 4.8 6.4 0.23 0.08 0.08 95 1007.4
20260507050537 16 350 0.0 6.4 0.23 0.05 0.05 92 1006.6
20260507050033 16 315 3.2 6.4 0.23 0.05 0.05 91 1006.9
20260507045530 17 97 1.6 12.9 0.05 0.00 0.00 89 1006.8
20260507045027 17 331 0.0 6.4 0.00 0.00 0.00 86 1007.0
20260507044524 17 316 6.4 8.0 0.00 0.00 0.00 84 1007.3
20260507044021 17 304 3.2 9.7 0.00 0.00 0.00 83 1007.2
20260507043517 17 298 6.4 6.4 0.00 0.00 0.00 83 1007.0
20260507043014 17 343 3.2 11.3 0.00 0.00 0.00 85 1006.8
20260507042510 17 337 4.8 11.3 0.00 0.00 0.00 85 1006.9
20260507042006 17 31 8.0 9.7 0.00 0.00 0.00 87 1006.6
20260507041503 18 314 8.0 8.0 0.00 0.00 0.00 90 1006.5
20260507041000 18 312 4.8 8.0 0.00 0.00 0.00 92 1006.5
20260507040455 18 77 0.0 9.7 0.00 0.00 0.00 92 1006.6
20260507035951 18 301 4.8 4.8 0.00 0.23 0.23 92 1006.2
20260507035448 18 322 1.6 6.4 0.00 0.23 0.23 92 1006.4
20260507034945 18 304 4.8 6.4 0.00 0.23 0.23 92 1006.3
20260507034442 18 311 4.8 8.0 0.00 0.23 0.23 92 1006.3
20260507033940 18 342 1.6 6.4 0.00 0.23 0.23 93 1006.4
20260507033437 18 313 6.4 6.4 0.00 0.23 0.23 93 1006.3
20260507032934 18 309 4.8 9.7 0.00 0.23 0.23 93 1006.3
20260507032431 18 0 3.2 8.0 0.00 0.23 0.23 94 1005.9
20260507031927 18 334 3.2 4.8 0.00 0.23 0.23 94 1006.2
20260507031426 18 309 4.8 11.3 0.00 0.23 0.23 94 1006.1
20260507030921 18 319 3.2 3.2 0.00 0.23 0.23 94 1005.9
20260507030418 18 5 1.6 1.6 0.00 0.23 0.23 94 1005.8
20260507025915 18 354 0.0 3.2 0.00 0.23 0.23 93 1005.9
20260507025412 18 339 3.2 3.2 0.00 0.23 0.23 94 1005.5
20260507024910 18 341 1.6 3.2 0.00 0.23 0.23 94 1005.6
20260507024407 18 334 0.0 3.2 0.00 0.23 0.23 94 1005.8
20260507023903 18 358 0.0 1.6 0.00 0.23 0.23 95 1005.5
20260507023400 18 0 0.0 3.2 0.00 0.23 0.23 95 1005.6
20260507022857 18 27 0.0 3.2 0.00 0.23 0.23 95 1005.8
20260507022354 18 23 0.0 3.2 0.00 0.23 0.23 95 1005.7
20260507021849 18 113 0.0 3.2 0.00 0.23 0.23 95 1005.7
20260507021345 18 0 0.0 1.6 0.00 0.23 0.23 95 1005.9
20260507020843 18 3 0.0 1.6 0.00 0.23 0.23 95 1005.8
20260507020339 18 52 0.0 1.6 0.00 0.23 0.23 95 1005.9
20260507015836 18 61 0.0 1.6 0.00 0.23 0.23 95 1005.6
20260507015335 18 27 0.0 0.0 0.00 0.23 0.23 95 1005.9
20260507014831 18 45 1.6 3.2 0.00 0.23 0.23 94 1005.7
20260507014327 18 71 1.6 1.6 0.00 0.23 0.23 94 1005.9
20260507013824 18 64 1.6 3.2 0.00 0.23 0.23 94 1005.9
20260507013321 18 19 1.6 3.2 0.00 0.23 0.23 94 1005.9
20260507012819 18 43 0.0 0.0 0.00 0.23 0.23 94 1006.2
20260507012314 18 19 0.0 0.0 0.00 0.23 0.23 94 1006.3
20260507011806 18 13 0.0 3.2 0.00 0.23 0.23 94 1006.4
20260507011303 18 350 1.6 1.6 0.00 0.23 0.23 94 1006.5
20260507010802 18 11 0.0 0.0 0.00 0.23 0.23 94 1006.2
20260507010258 18 4 0.0 1.6 0.00 0.23 0.23 93 1006.2
20260507005756 18 47 0.0 0.0 0.00 0.23 0.23 93 1006.0
20260507005252 18 358 0.0 1.6 0.00 0.23 0.23 93 1006.0
20260507004749 18 30 0.0 1.6 0.00 0.23 0.23 92 1005.8
20260507004247 18 346 1.6 1.6 0.00 0.23 0.23 92 1005.9
20260507003743 18 37 0.0 1.6 0.00 0.23 0.23 91 1005.9
20260507003238 18 19 0.0 3.2 0.00 0.23 0.23 90 1005.9
20260507002734 18 32 0.0 1.6 0.00 0.23 0.23 90 1005.8
20260507002230 18 47 1.6 3.2 0.00 0.23 0.23 90 1006.0
20260507001727 18 18 0.0 3.2 0.00 0.23 0.23 90 1005.8
20260507001225 19 351 0.0 3.2 0.00 0.23 0.23 90 1005.9
20260507000721 19 11 0.0 3.2 0.00 0.23 0.23 88 1005.6
20260507000216 20 23 0.0 3.2 0.00 0.23 0.23 88 1005.6
20260506235714 20 85 0.0 3.2 0.00 0.23 0.23 87 1005.5
20260506235209 20 15 0.0 3.2 0.00 0.23 0.23 87 1005.3
20260506234706 20 8 0.0 1.6 0.00 0.23 0.23 86 1005.6
20260506234204 20 123 0.0 3.2 0.00 0.23 0.23 86 1005.4
20260506233701 20 0 0.0 1.6 0.00 0.23 0.23 85 1005.5
20260506233157 20 323 1.6 1.6 0.00 0.23 0.23 84 1005.4
20260506232654 20 25 0.0 3.2 0.00 0.23 0.23 84 1005.1
20260506232149 20 86 1.6 3.2 0.00 0.23 0.23 84 1005.1
20260506231646 20 192 1.6 3.2 0.00 0.23 0.23 83 1005.2
20260506231145 20 346 0.0 3.2 0.00 0.23 0.23 83 1005.2
20260506230641 20 8 1.6 3.2 0.00 0.23 0.23 83 1005.1
20260506230138 21 0 0.0 3.2 0.00 0.23 0.23 82 1005.2
20260506225634 21 330 1.6 3.2 0.00 0.23 0.23 82 1005.2
20260506225131 21 28 1.6 3.2 0.00 0.23 0.23 82 1004.8
20260506224628 21 68 0.0 3.2 0.00 0.23 0.23 81 1004.9
20260506224124 21 130 0.0 4.8 0.00 0.23 0.23 82 1005.2
20260506223621 21 141 3.2 4.8 0.00 0.23 0.23 82 1005.2
20260506223117 21 10 3.2 3.2 0.00 0.23 0.23 82 1005.0
20260506222614 21 68 3.2 4.8 0.00 0.23 0.23 81 1005.1
20260506222110 21 246 0.0 6.4 0.00 0.23 0.23 81 1005.3
20260506221608 21 301 4.8 6.4 0.00 0.23 0.23 81 1005.1
20260506221106 21 152 0.0 6.4 0.00 0.23 0.23 81 1005.5
20260506220602 21 73 1.6 4.8 0.00 0.23 0.23 81 1005.2
20260506220057 21 217 1.6 6.4 0.00 0.23 0.23 80 1005.3
20260506215554 21 178 3.2 3.2 0.00 0.23 0.23 80 1005.5
20260506215049 21 180 1.6 12.9 0.00 0.23 0.23 80 1005.5
20260506214547 21 127 3.2 11.3 0.00 0.23 0.23 80 1005.3
20260506214044 21 40 3.2 6.4 0.00 0.23 0.23 80 1005.2
20260506213543 21 130 1.6 4.8 0.00 0.23 0.23 80 1004.9
20260506213040 21 45 4.8 6.4 0.00 0.23 0.23 80 1005.1
20260506212536 21 147 1.6 8.0 0.00 0.23 0.23 80 1005.1
20260506212031 21 91 3.2 9.7 0.00 0.23 0.23 80 1004.9
20260506211527 21 113 3.2 11.3 0.00 0.23 0.23 80 1004.9
20260506211024 21 325 3.2 9.7 0.00 0.23 0.23 80 1004.7
20260506210521 21 106 3.2 8.0 0.00 0.23 0.23 80 1004.8
20260506210017 21 354 3.2 9.7 0.00 0.23 0.23 80 1004.7
20260506205514 21 240 4.8 6.4 0.00 0.23 0.23 80 1004.4
20260506205009 21 279 1.6 4.8 0.00 0.23 0.23 81 1004.5
20260506204508 21 0 3.2 3.2 0.00 0.23 0.23 81 1004.6
20260506204004 21 21 3.2 6.4 0.00 0.23 0.23 81 1004.7
20260506203502 21 91 3.2 6.4 0.00 0.23 0.23 81 1004.9
20260506202958 21 137 1.6 3.2 0.00 0.23 0.23 81 1004.8
20260506202455 21 133 4.8 9.7 0.00 0.23 0.23 81 1004.6
20260506201946 21 139 3.2 6.4 0.00 0.23 0.23 81 1004.9
20260506201444 21 307 4.8 8.0 0.00 0.23 0.23 82 1004.8
20260506200941 21 359 1.6 14.5 0.00 0.23 0.23 81 1004.8
20260506200437 21 326 3.2 4.8 0.00 0.23 0.23 81 1004.8
20260506195933 21 42 1.6 8.0 0.00 0.23 0.23 81 1004.5
20260506195430 21 168 9.7 9.7 0.00 0.23 0.23 81 1004.5
20260506194927 21 358 0.0 11.3 0.00 0.23 0.23 81 1004.6
20260506194424 21 35 3.2 9.7 0.00 0.23 0.23 82 1004.8
20260506193921 21 116 1.6 8.0 0.00 0.23 0.23 82 1004.9
20260506193418 20 180 3.2 4.8 0.00 0.23 0.23 82 1004.9
20260506192915 20 331 1.6 6.4 0.00 0.23 0.23 82 1004.9
20260506192412 20 327 3.2 8.0 0.00 0.23 0.23 81 1005.0
20260506191909 20 85 3.2 6.4 0.00 0.23 0.23 81 1004.9
20260506191405 20 10 1.6 3.2 0.00 0.23 0.23 81 1005.3
20260506190902 20 352 4.8 4.8 0.00 0.23 0.23 81 1005.3
20260506190358 21 322 6.4 11.3 0.00 0.23 0.23 80 1005.5
20260506185855 21 25 1.6 9.7 0.00 0.23 0.23 80 1005.2
20260506185352 21 260 3.2 9.7 0.00 0.23 0.23 80 1005.4
20260506184849 21 209 4.8 6.4 0.00 0.23 0.23 79 1005.3
20260506184346 21 289 3.2 9.7 0.00 0.23 0.23 80 1005.3
20260506183844 21 19 3.2 9.7 0.00 0.23 0.23 80 1005.3
20260506183339 20 314 1.6 9.7 0.00 0.23 0.23 81 1005.6
20260506182836 20 119 3.2 14.5 0.00 0.23 0.23 80 1005.6
20260506182333 20 173 4.8 6.4 0.00 0.23 0.23 80 1005.6
20260506181831 20 143 3.2 9.7 0.00 0.23 0.23 80 1005.9
20260506181329 20 46 3.2 6.4 0.00 0.23 0.23 80 1006.0
20260506180826 20 35 3.2 9.7 0.00 0.23 0.23 82 1005.8
20260506180321 20 72 3.2 8.0 0.00 0.23 0.23 82 1006.1
20260506175818 20 45 4.8 9.7 0.00 0.23 0.23 81 1006.1
20260506175315 20 223 1.6 9.7 0.00 0.23 0.23 83 1006.0
20260506174812 20 114 6.4 12.9 0.00 0.23 0.23 83 1005.9
20260506174309 20 164 1.6 8.0 0.00 0.23 0.23 84 1006.0
20260506173807 20 98 8.0 11.3 0.00 0.23 0.23 84 1005.9
20260506173303 19 99 6.4 9.7 0.00 0.23 0.23 85 1006.1
20260506172801 18 161 4.8 8.0 0.00 0.23 0.23 86 1006.1
20260506172257 18 232 4.8 20.9 0.00 0.23 0.23 86 1006.4
20260506171755 18 114 6.4 12.9 0.00 0.23 0.23 86 1006.4
20260506171251 18 274 4.8 17.7 0.00 0.23 0.23 87 1006.2
20260506170749 18 70 3.2 12.9 0.00 0.23 0.23 87 1006.2
20260506170245 18 279 4.8 9.7 0.00 0.23 0.23 88 1006.0
20260506165744 18 143 4.8 17.7 0.00 0.23 0.23 89 1006.1
20260506165241 18 93 0.0 6.4 0.00 0.23 0.23 90 1006.3
20260506164738 18 162 4.8 6.4 0.00 0.23 0.23 90 1006.6
20260506164235 18 178 4.8 12.9 0.00 0.23 0.23 91 1006.4
20260506163732 18 124 3.2 16.1 0.00 0.23 0.23 91 1006.3
20260506163226 18 95 4.8 9.7 0.00 0.23 0.23 91 1006.3
20260506162723 18 127 4.8 14.5 0.00 0.23 0.23 92 1006.4
20260506162220 18 277 0.0 4.8 0.00 0.23 0.23 93 1006.3
20260506161717 18 139 3.2 14.5 0.00 0.23 0.23 93 1006.6
20260506161214 17 197 1.6 16.1 0.00 0.23 0.23 93 1006.7
20260506160712 17 304 3.2 8.0 0.05 0.23 0.23 94 1006.9
20260506160203 17 290 4.8 8.0 0.05 0.23 0.23 94 1006.7
20260506155701 17 164 3.2 8.0 0.00 0.23 0.23 94 1006.7
20260506155158 17 309 6.4 8.0 0.00 0.23 0.23 94 1006.8
20260506153300 17 316 1.6 6.4 0.00 0.20 0.20 95 1007.1
20260506152757 17 154 8.0 8.0 0.00 0.20 0.20 95 1007.4
20260506152254 17 345 3.2 12.9 0.05 0.20 0.20 95 1007.4
20260506151753 17 170 1.6 4.8 0.13 0.20 0.20 95 1007.5
20260506151249 17 248 6.4 6.4 0.23 0.18 0.18 95 1007.5
20260506150746 16 117 1.6 9.7 0.18 0.18 0.18 94 1007.5
20260506150243 17 163 3.2 4.8 0.00 0.15 0.15 94 1007.6
20260506145740 17 234 1.6 3.2 0.13 0.15 0.15 94 1007.5
20260506145236 17 32 0.0 4.8 0.23 0.15 0.15 93 1007.8
20260506144734 17 216 0.0 6.4 0.36 0.13 0.13 93 1007.6
20260506144231 17 342 0.0 4.8 0.23 0.10 0.10 92 1007.7
20260506143728 17 122 1.6 3.2 0.13 0.08 0.08 91 1007.6
20260506143225 17 355 3.2 3.2 0.05 0.05 0.05 90 1007.5
20260506142724 17 93 1.6 3.2 0.00 0.05 0.05 89 1007.6
20260506142222 17 331 3.2 4.8 0.05 0.05 0.05 88 1007.5
20260506141720 17 61 3.2 4.8 0.00 0.05 0.05 88 1007.8
20260506141218 17 236 6.4 6.4 0.05 0.05 0.05 88 1007.8
20260506140715 17 132 6.4 8.0 0.13 0.05 0.05 87 1007.7
20260506140212 17 98 4.8 4.8 0.18 0.03 0.03 85 1007.8
20260506135708 18 87 4.8 6.4 0.13 0.03 0.03 83 1007.9
20260506135205 18 150 3.2 9.7 0.00 0.00 0.00 81 1007.7
20260506134702 18 217 0.0 11.3 0.00 0.00 0.00 79 1007.8
20260506134158 18 94 3.2 6.4 0.00 0.00 0.00 77 1007.9
20260506133655 18 119 4.8 6.4 0.00 0.00 0.00 76 1008.1
20260506133151 18 114 3.2 9.7 0.00 0.00 0.00 76 1007.6
20260506132649 18 11 4.8 6.4 0.00 0.00 0.00 77 1007.6
20260506132146 18 158 9.7 9.7 0.00 0.00 0.00 76 1007.8
20260506131644 19 95 6.4 8.0 0.00 0.00 0.00 75 1007.5
20260506131139 19 0 0.0 9.7 0.00 0.00 0.00 74 1007.4
20260506130636 19 289 8.0 12.9 0.00 0.00 0.00 74 1007.2
20260506130134 19 30 4.8 6.4 0.00 0.00 0.00 75 1007.3
20260506125632 19 66 3.2 12.9 0.00 0.00 0.00 73 1007.5
20260506125129 19 279 0.0 6.4 0.00 0.00 0.00 74 1007.6
20260506124627 19 194 1.6 9.7 0.00 0.00 0.00 75 1007.5
20260506124125 19 289 4.8 4.8 0.00 0.00 0.00 75 1007.5
20260506123622 19 161 0.0 8.0 0.00 0.00 0.00 75 1007.6
20260506123121 19 313 4.8 6.4 0.00 0.00 0.00 75 1007.7
20260506122617 19 151 1.6 8.0 0.00 0.00 0.00 75 1007.7
20260506122115 19 145 6.4 9.7 0.00 0.00 0.00 75 1007.6
20260506121612 19 355 3.2 3.2 0.00 0.00 0.00 76 1007.7
20260506121108 19 112 0.0 9.7 0.00 0.00 0.00 75 1007.8
20260506120607 19 129 4.8 9.7 0.00 0.00 0.00 75 1007.6
20260506120103 19 286 1.6 6.4 0.00 0.00 0.00 75 1007.5
20260506115602 19 209 6.4 6.4 0.00 0.00 0.00 75 1007.7
20260506115100 19 147 3.2 6.4 0.00 0.00 0.00 76 1007.4
20260506114557 19 135 6.4 11.3 0.00 0.00 0.00 75 1007.4
20260506114055 19 143 1.6 9.7 0.00 0.00 0.00 76 1007.3
20260506113553 19 133 4.8 8.0 0.00 0.00 0.00 76 1007.3
20260506113050 19 108 3.2 11.3 0.00 0.00 0.00 76 1007.2
20260506112546 19 246 3.2 9.7 0.00 0.00 0.00 77 1007.1
20260506112044 18 1 1.6 9.7 0.00 0.00 0.00 78 1007.2
20260506111541 18 110 6.4 11.3 0.00 0.00 0.00 78 1007.4
20260506111038 18 268 0.0 9.7 0.00 0.00 0.00 79 1007.2
20260506110536 18 165 6.4 8.0 0.00 0.00 0.00 79 1007.2
20260506110033 18 82 6.4 8.0 0.00 0.00 0.00 80 1007.2
20260506105529 18 185 4.8 9.7 0.00 0.00 0.00 80 1007.2
20260506105026 18 145 3.2 4.8 0.00 0.00 0.00 80 1007.2
20260506104524 18 55 3.2 6.4 0.00 0.00 0.00 80 1007.0
20260506104022 18 204 3.2 12.9 0.00 0.00 0.00 80 1006.9
20260506103519 18 295 3.2 9.7 0.00 0.00 0.00 80 1007.0
20260506103016 18 202 3.2 9.7 0.00 0.00 0.00 80 1007.0
20260506102514 18 121 1.6 6.4 0.00 0.00 0.00 80 1007.0
20260506102011 18 146 4.8 4.8 0.00 0.00 0.00 80 1007.1
20260506101508 18 205 4.8 4.8 0.00 0.00 0.00 80 1007.0
20260506101005 18 36 4.8 8.0 0.00 0.00 0.00 80 1007.1
20260506100503 18 96 1.6 4.8 0.00 0.00 0.00 80 1007.1
20260506100001 18 30 3.2 9.7 0.00 0.00 0.00 80 1007.1
20260506095459 18 70 3.2 4.8 0.00 0.00 0.00 79 1006.9
20260506094955 18 84 1.6 8.0 0.00 0.00 0.00 79 1006.9
20260506094453 18 228 3.2 6.4 0.00 0.00 0.00 79 1006.9
20260506093951 18 262 4.8 4.8 0.00 0.00 0.00 80 1007.1
20260506093449 18 317 1.6 9.7 0.00 0.00 0.00 79 1007.0
20260506092946 18 280 1.6 6.4 0.00 0.00 0.00 80 1007.2
20260506092444 18 30 4.8 11.3 0.00 0.00 0.00 79 1007.1
20260506091940 18 337 3.2 4.8 0.00 0.00 0.00 79 1007.2
20260506091439 18 117 4.8 4.8 0.00 0.00 0.00 79 1007.2
20260506090936 18 136 4.8 8.0 0.00 0.00 0.00 79 1007.2
20260506090433 18 341 0.0 4.8 0.00 0.00 0.00 79 1007.2
20260506085929 18 311 8.0 8.0 0.00 0.00 0.00 79 1007.5
20260506085426 18 355 1.6 4.8 0.00 0.00 0.00 79 1007.2
20260506084923 18 340 3.2 8.0 0.00 0.00 0.00 79 1007.2
20260506084420 18 88 0.0 9.7 0.00 0.00 0.00 78 1007.2
20260506083916 18 340 3.2 4.8 0.00 0.00 0.00 78 1007.2
20260506083413 18 178 6.4 6.4 0.00 0.00 0.00 78 1007.4
20260506082911 18 111 3.2 12.9 0.00 0.00 0.00 78 1007.2
20260506082408 18 266 3.2 8.0 0.00 0.00 0.00 78 1007.2
20260506081903 18 154 0.0 6.4 0.00 0.00 0.00 78 1007.4
20260506081402 18 77 3.2 11.3 0.00 0.00 0.00 78 1007.3
20260506080859 19 82 3.2 6.4 0.00 0.00 0.00 78 1007.3
20260506080355 19 104 0.0 6.4 0.00 0.00 0.00 77 1007.1